DW1347 Weather Reports


time (UTC)temp
F
wind
direction
speed
knots
gust
knots
rain 1hr
in
rain 24hr
in
rain mn
in
humidity
%
barometer
mb
20260903001409 70 60 0.0 0.9 0.00 0.00 0.00 43 1027.1
20260903000909 71 224 0.9 0.9 0.00 0.00 0.00 43 1027.1
20260903000404 72 156 0.9 0.9 0.00 0.00 0.00 43 1027.0
20260902235902 73 215 0.0 0.0 0.00 0.00 0.00 41 1027.4
20260902235358 73 219 0.0 0.0 0.00 0.00 0.00 40 1027.1
20260902234852 73 224 0.0 0.0 0.00 0.00 0.00 40 1027.3
20260902234352 73 217 0.0 0.0 0.00 0.00 0.00 41 1027.1
20260902233850 72 197 0.9 0.9 0.00 0.00 0.00 40 1027.5
20260902233345 73 190 0.0 0.0 0.00 0.00 0.00 41 1027.5
20260902232844 73 197 0.9 0.9 0.00 0.00 0.00 40 1027.4
20260902232339 73 19 2.6 4.3 0.00 0.00 0.00 40 1027.0
20260902231838 74 65 2.6 4.3 0.00 0.00 0.00 40 1027.6
20260902231333 75 41 1.7 2.6 0.00 0.00 0.00 40 1027.5
20260902230828 75 192 0.9 1.7 0.00 0.00 0.00 38 1027.8
20260902230328 77 309 1.7 1.7 0.00 0.00 0.00 38 1027.6
20260902225822 74 227 1.7 2.6 0.00 0.00 0.00 38 1027.6
20260902225317 73 236 0.9 0.9 0.00 0.00 0.00 39 1027.6
20260902224816 73 5 2.6 2.6 0.00 0.00 0.00 39 1027.9
20260902224311 73 45 1.7 1.7 0.00 0.00 0.00 40 1027.6
20260902223808 73 140 0.9 1.7 0.00 0.00 0.00 40 1027.5
20260902223307 74 287 2.6 4.3 0.00 0.00 0.00 39 1027.6
20260902222801 74 31 0.9 2.6 0.00 0.00 0.00 39 1027.4
20260902222300 75 194 0.9 0.9 0.00 0.00 0.00 39 1027.3
20260902221755 75 213 0.9 1.7 0.00 0.00 0.00 38 1027.4
20260902221254 74 95 1.7 1.7 0.00 0.00 0.00 39 1027.4
20260902220750 74 255 1.7 1.7 0.00 0.00 0.00 39 1027.5
20260902220249 74 139 2.6 2.6 0.00 0.00 0.00 39 1027.5
20260902215745 74 138 6.1 6.1 0.00 0.00 0.00 38 1027.3
20260902215240 73 226 0.0 0.0 0.00 0.00 0.00 39 1027.5
20260902214736 73 228 0.9 0.9 0.00 0.00 0.00 39 1027.5
20260902214234 73 209 0.0 0.9 0.00 0.00 0.00 39 1027.8
20260902213730 73 197 0.9 0.9 0.00 0.00 0.00 39 1027.9
20260902213230 74 216 0.9 1.7 0.00 0.00 0.00 39 1027.8
20260902212729 74 335 3.5 4.3 0.00 0.00 0.00 39 1027.6
20260902212226 74 262 4.3 5.2 0.00 0.00 0.00 38 1028.0
20260902211722 74 200 1.7 1.7 0.00 0.00 0.00 38 1028.0
20260902211217 74 90 0.9 0.9 0.00 0.00 0.00 38 1028.1
20260902210712 74 146 0.9 0.9 0.00 0.00 0.00 39 1028.0
20260902210207 73 294 1.7 1.7 0.00 0.00 0.00 38 1028.0
20260902205705 74 130 0.9 1.7 0.00 0.00 0.00 39 1028.3
20260902205200 75 151 1.7 1.7 0.00 0.00 0.00 38 1027.9
20260902204655 76 353 2.6 4.3 0.00 0.00 0.00 36 1028.4
20260902204149 74 222 0.0 0.9 0.00 0.00 0.00 37 1028.5
20260902203645 74 99 2.6 4.3 0.00 0.00 0.00 38 1028.5
20260902203140 75 123 0.9 1.7 0.00 0.00 0.00 38 1028.6
20260902202635 75 133 0.9 1.7 0.00 0.00 0.00 37 1028.9
20260902202132 75 4 2.6 4.3 0.00 0.00 0.00 37 1028.3
20260902201627 75 69 2.6 4.3 0.00 0.00 0.00 37 1028.5
20260902201127 74 205 0.0 0.9 0.00 0.00 0.00 37 1028.9
20260902200622 75 38 3.5 5.2 0.00 0.00 0.00 38 1028.8
20260902200118 75 51 3.5 6.1 0.00 0.00 0.00 37 1028.4
20260902195614 74 61 3.5 5.2 0.00 0.00 0.00 37 1028.6
20260902195113 73 61 3.5 5.2 0.00 0.00 0.00 38 1028.9
20260902194612 75 35 7.0 8.7 0.00 0.00 0.00 37 1028.8
20260902194107 74 221 1.7 1.7 0.00 0.00 0.00 37 1028.9
20260902193603 75 83 2.6 4.3 0.00 0.00 0.00 37 1028.9
20260902193103 73 95 1.7 2.6 0.00 0.00 0.00 40 1029.0
20260902192601 72 181 1.7 2.6 0.00 0.00 0.00 41 1029.1
20260902192100 72 223 2.6 5.2 0.00 0.00 0.00 39 1028.9
20260902191555 73 139 4.3 4.3 0.00 0.00 0.00 38 1029.1
20260902191050 73 227 2.6 2.6 0.00 0.00 0.00 38 1029.5
20260902190545 74 189 0.9 1.7 0.00 0.00 0.00 37 1029.3
20260902190041 73 252 2.6 4.3 0.00 0.00 0.00 37 1029.3
20260902185537 73 336 1.7 1.7 0.00 0.00 0.00 36 1029.5
20260902185032 74 230 3.5 4.3 0.00 0.00 0.00 35 1029.5
20260902184527 74 229 2.6 4.3 0.00 0.00 0.00 37 1029.4
20260902184022 75 215 0.9 0.9 0.00 0.00 0.00 34 1029.5
20260902183519 75 188 2.6 2.6 0.00 0.00 0.00 34 1029.5
20260902183015 76 133 0.9 1.7 0.00 0.00 0.00 34 1029.7
20260902182511 76 134 2.6 2.6 0.00 0.00 0.00 35 1029.7
20260902182006 76 127 1.7 4.3 0.00 0.00 0.00 35 1029.9
20260902181502 75 40 1.7 4.3 0.00 0.00 0.00 35 1029.8
20260902180956 75 72 2.6 4.3 0.00 0.00 0.00 35 1029.9
20260902180457 74 177 0.9 0.9 0.00 0.00 0.00 35 1030.0
20260902175952 75 170 2.6 2.6 0.00 0.00 0.00 33 1030.5
20260902175447 76 39 2.6 2.6 0.00 0.00 0.00 34 1030.3
20260902174943 76 209 0.0 0.9 0.00 0.00 0.00 35 1030.2
20260902174439 75 235 0.9 0.9 0.00 0.00 0.00 35 1030.3
20260902173935 74 154 2.6 4.3 0.00 0.00 0.00 35 1030.7
20260902173434 74 354 2.6 2.6 0.00 0.00 0.00 35 1030.4
20260902172929 75 334 2.6 4.3 0.00 0.00 0.00 35 1030.2
20260902172428 74 142 1.7 1.7 0.00 0.00 0.00 35 1030.4
20260902171924 73 199 0.9 1.7 0.00 0.00 0.00 37 1030.4
20260902171419 74 291 2.6 4.3 0.00 0.00 0.00 37 1030.5
20260902170915 73 14 3.5 4.3 0.00 0.00 0.00 37 1030.8
20260902170410 73 43 0.9 1.7 0.00 0.00 0.00 38 1030.4
20260902165906 73 302 3.5 4.3 0.00 0.00 0.00 38 1030.5
20260902165405 73 93 2.6 2.6 0.00 0.00 0.00 38 1030.8
20260902164900 71 128 0.0 0.9 0.00 0.00 0.00 39 1030.4
20260902164355 73 216 4.3 6.1 0.00 0.00 0.00 39 1030.7
20260902163854 73 102 3.5 4.3 0.00 0.00 0.00 38 1030.7
20260902163349 71 153 1.7 1.7 0.00 0.00 0.00 39 1030.7
20260902162847 71 356 7.8 11.3 0.00 0.00 0.00 39 1030.4
20260902162342 71 125 2.6 5.2 0.00 0.00 0.00 40 1030.7
20260902161837 71 74 4.3 6.1 0.00 0.00 0.00 38 1030.7
20260902161332 71 201 0.9 1.7 0.00 0.00 0.00 39 1030.7
20260902160828 72 16 6.1 7.8 0.00 0.00 0.00 38 1030.8
20260902160323 71 261 0.9 1.7 0.00 0.00 0.00 38 1030.7
20260902155821 71 319 1.7 1.7 0.00 0.00 0.00 39 1030.5
20260902155320 71 199 0.9 0.9 0.00 0.00 0.00 40 1030.8
20260902154816 71 48 2.6 2.6 0.00 0.00 0.00 38 1030.8
20260902154311 70 350 0.9 1.7 0.00 0.00 0.00 40 1030.9
20260902153810 70 194 0.0 0.0 0.00 0.00 0.00 39 1030.9
20260902153304 70 44 0.9 0.9 0.00 0.00 0.00 39 1030.8
20260902152800 69 23 1.7 1.7 0.00 0.00 0.00 39 1030.5
20260902152256 69 193 0.9 0.9 0.00 0.00 0.00 40 1030.7
20260902151756 69 170 0.9 0.9 0.00 0.00 0.00 41 1031.0
20260902151251 68 148 3.5 6.1 0.00 0.00 0.00 41 1030.7
20260902150746 68 170 0.0 0.9 0.00 0.00 0.00 45 1030.8
20260902150243 68 195 0.0 0.0 0.00 0.00 0.00 43 1030.5
20260902145741 67 201 0.0 0.9 0.00 0.00 0.00 43 1030.5
20260902145237 64 191 0.9 0.9 0.00 0.00 0.00 47 1030.7
20260902144732 63 226 0.9 0.9 0.00 0.00 0.00 52 1030.3
20260902144228 62 214 0.0 0.0 0.00 0.00 0.00 57 1030.7
20260902143723 61 201 0.0 0.0 0.00 0.00 0.00 55 1030.7
20260902143218 59 162 0.0 0.9 0.00 0.00 0.00 58 1030.7
20260902142714 58 187 0.0 0.9 0.00 0.00 0.00 58 1030.8
20260902142210 57 209 0.0 0.0 0.00 0.00 0.00 60 1030.8
20260902141709 56 220 0.0 0.0 0.00 0.00 0.00 60 1030.5
20260902141205 57 208 0.0 0.0 0.00 0.00 0.00 59 1030.4
20260902140701 55 144 1.7 1.7 0.00 0.00 0.00 57 1030.5
20260902140201 54 195 0.9 0.9 0.00 0.00 0.00 60 1030.5
20260902135700 53 194 0.9 0.9 0.00 0.00 0.00 62 1030.5
20260902135155 53 215 0.0 0.0 0.00 0.00 0.00 62 1030.4
20260902134650 52 168 1.7 1.7 0.00 0.00 0.00 63 1030.9
20260902134150 51 190 0.9 0.9 0.00 0.00 0.00 65 1030.7
20260902133646 50 177 0.9 0.9 0.00 0.00 0.00 67 1030.9
20260902133145 48 218 0.0 0.0 0.00 0.00 0.00 70 1030.4
20260902132641 47 203 0.0 0.9 0.00 0.00 0.00 71 1030.4
20260902132136 46 208 0.0 0.0 0.00 0.00 0.00 75 1030.4
20260902131632 47 208 0.9 0.9 0.00 0.00 0.00 73 1030.3
20260902131127 47 158 0.9 0.9 0.00 0.00 0.00 74 1030.7
20260902130623 46 189 0.9 0.9 0.00 0.00 0.00 76 1030.4
20260902130118 47 249 0.0 0.9 0.00 0.00 0.00 77 1030.8
20260902125614 47 217 0.0 0.0 0.00 0.00 0.00 75 1030.5
20260902125109 47 201 0.0 0.9 0.00 0.00 0.00 76 1030.5
20260902124605 46 170 1.7 1.7 0.00 0.00 0.00 79 1030.4
20260902124105 46 219 0.0 0.0 0.00 0.00 0.00 81 1030.2
20260902123601 46 216 0.0 0.0 0.00 0.00 0.00 80 1030.2
20260902123055 47 218 0.0 0.0 0.00 0.00 0.00 80 1030.2
20260902122550 48 223 0.0 0.0 0.00 0.00 0.00 77 1029.9
20260902122046 47 217 0.0 0.0 0.00 0.00 0.00 79 1030.2
20260902121545 47 181 0.9 0.9 0.00 0.00 0.00 81 1030.0
20260902121040 48 207 0.0 0.9 0.00 0.00 0.00 80 1030.0
20260902120536 48 249 0.0 0.0 0.00 0.00 0.00 78 1030.2
20260902120032 50 192 0.9 0.9 0.00 0.00 0.00 75 1029.8
20260902115527 49 193 0.9 0.9 0.00 0.00 0.00 76 1030.0
20260902115024 50 209 0.0 0.9 0.00 0.00 0.00 77 1030.0
20260902114519 50 197 0.0 0.9 0.00 0.00 0.00 76 1030.3
20260902114019 49 238 0.0 0.0 0.00 0.00 0.00 78 1030.2
20260902113515 48 195 0.9 0.9 0.00 0.00 0.00 81 1030.2
20260902113010 48 210 0.0 0.0 0.00 0.00 0.00 81 1029.9
20260902112505 49 224 0.0 0.0 0.00 0.00 0.00 79 1029.8
20260902112001 48 176 1.7 1.7 0.00 0.00 0.00 80 1029.9
20260902111457 47 178 0.9 0.9 0.00 0.00 0.00 83 1030.0
20260902110952 46 206 0.0 0.0 0.00 0.00 0.00 85 1030.2
20260902110448 47 192 0.0 0.0 0.00 0.00 0.00 85 1029.9
20260902105943 48 224 0.0 0.0 0.00 0.00 0.00 83 1030.2
20260902105439 47 163 2.6 2.6 0.00 0.00 0.00 85 1029.9
20260902104933 47 226 0.0 0.0 0.00 0.00 0.00 85 1030.3
20260902104429 47 166 1.7 1.7 0.00 0.00 0.00 86 1030.0
20260902103929 48 211 0.0 0.0 0.00 0.00 0.00 84 1030.2
20260902103424 49 232 0.0 0.0 0.00 0.00 0.00 81 1030.0
20260902102919 48 152 1.7 1.7 0.00 0.00 0.00 81 1030.0
20260902102416 49 211 0.0 0.0 0.00 0.00 0.00 81 1030.0
20260902101912 49 206 0.0 0.0 0.00 0.00 0.00 81 1030.0
20260902101406 49 198 0.0 0.9 0.00 0.00 0.00 81 1030.3
20260902100906 49 220 0.0 0.0 0.00 0.00 0.00 80 1030.0
20260902100406 49 207 0.0 0.0 0.00 0.00 0.00 80 1029.8
20260902095900 48 175 0.9 1.7 0.00 0.00 0.00 82 1029.9
20260902095355 49 222 0.0 0.0 0.00 0.00 0.00 81 1030.0
20260902094855 49 190 0.9 0.9 0.00 0.00 0.00 81 1030.0
20260902094351 50 181 1.7 1.7 0.00 0.00 0.00 79 1030.2
20260902093850 51 218 0.0 0.0 0.00 0.00 0.00 79 1030.3
20260902093346 51 209 0.0 0.0 0.00 0.00 0.00 78 1030.2
20260902092844 50 180 1.7 1.7 0.00 0.00 0.00 79 1030.2
20260902092340 50 207 0.0 0.0 0.00 0.00 0.00 79 1030.3
20260902091834 50 187 0.9 0.9 0.00 0.00 0.00 79 1030.0
20260902091330 50 196 0.0 0.9 0.00 0.00 0.00 79 1030.2
20260902090827 50 221 0.0 0.0 0.00 0.00 0.00 78 1030.2
20260902090326 50 211 0.0 0.0 0.00 0.00 0.00 78 1030.3
20260902085825 50 193 0.0 0.0 0.00 0.00 0.00 78 1030.2
20260902085321 50 203 0.0 0.9 0.00 0.00 0.00 78 1030.2
20260902084816 50 172 0.9 1.7 0.00 0.00 0.00 78 1030.3
20260902084313 50 214 0.0 0.0 0.00 0.00 0.00 78 1029.9
20260902083808 51 214 0.0 0.0 0.00 0.00 0.00 77 1030.3
20260902083307 50 213 0.0 0.0 0.00 0.00 0.00 77 1030.2
20260902082802 49 192 0.0 0.9 0.00 0.00 0.00 80 1030.2
20260902082259 50 218 0.0 0.0 0.00 0.00 0.00 79 1030.2
20260902081755 50 218 0.0 0.0 0.00 0.00 0.00 79 1030.2
20260902081250 50 212 0.0 0.0 0.00 0.00 0.00 78 1030.2
20260902080745 50 196 0.9 0.9 0.00 0.00 0.00 79 1030.3
20260902080243 50 201 0.0 0.9 0.00 0.00 0.00 80 1030.4
20260902075741 50 216 0.0 0.0 0.00 0.00 0.00 80 1030.7
20260902075237 50 194 0.0 0.0 0.00 0.00 0.00 80 1030.4
20260902074732 50 214 0.0 0.0 0.00 0.00 0.00 80 1030.4
20260902074228 50 166 1.7 1.7 0.00 0.00 0.00 80 1030.4
20260902073723 50 217 0.0 0.0 0.00 0.00 0.00 79 1030.4
20260902073219 50 204 0.0 0.0 0.00 0.00 0.00 79 1030.5
20260902072715 50 213 0.0 0.0 0.00 0.00 0.00 78 1030.3
20260902072211 51 214 0.0 0.0 0.00 0.00 0.00 78 1030.2
20260902071706 50 198 0.0 0.0 0.00 0.00 0.00 78 1030.4
20260902071201 50 202 0.0 0.9 0.00 0.00 0.00 79 1030.3
20260902070658 50 176 0.9 0.9 0.00 0.00 0.00 78 1030.2
20260902070157 50 193 0.0 0.9 0.00 0.00 0.00 78 1030.3
20260902065655 51 184 0.9 0.9 0.00 0.00 0.00 78 1030.2
20260902065152 51 179 0.9 0.9 0.00 0.00 0.00 78 1030.5
20260902064647 51 209 0.0 0.0 0.00 0.00 0.00 78 1030.5
20260902064142 51 196 0.0 0.0 0.00 0.00 0.00 78 1030.7
20260902063637 50 199 0.9 0.9 0.00 0.00 0.00 78 1030.4
20260902063132 50 190 0.0 0.0 0.00 0.00 0.00 78 1030.5
20260902062631 50 176 0.0 0.9 0.00 0.00 0.00 78 1030.5
20260902062127 51 218 0.0 0.0 0.00 0.00 0.00 77 1030.5
20260902061626 52 213 0.0 0.0 0.00 0.00 0.00 76 1030.5
20260902061122 51 167 1.7 1.7 0.00 0.00 0.00 76 1030.7
20260902060619 51 194 0.9 0.9 0.00 0.00 0.00 77 1030.3
20260902060115 51 218 0.0 0.0 0.00 0.00 0.00 76 1030.4
20260902055610 52 213 0.0 0.0 0.00 0.04 0.04 76 1030.3
20260902055105 52 203 0.0 0.0 0.00 0.04 0.04 75 1030.4
20260902054600 52 213 0.0 0.0 0.00 0.04 0.04 74 1030.4
20260902054056 52 195 0.0 0.0 0.00 0.04 0.04 74 1030.4
20260902053551 53 213 0.0 0.0 0.00 0.04 0.04 74 1030.5
20260902053050 52 153 0.9 0.9 0.00 0.04 0.04 75 1030.2
20260902052545 52 195 0.0 0.9 0.00 0.04 0.04 75 1030.4
20260902052041 52 201 0.0 0.9 0.00 0.04 0.04 77 1030.5
20260902051540 52 209 0.0 0.0 0.00 0.04 0.04 76 1030.4
20260902051039 52 217 0.0 0.0 0.00 0.04 0.04 76 1030.8
20260902050534 53 201 0.9 0.9 0.00 0.04 0.04 74 1030.8
20260902050030 53 206 0.0 0.0 0.00 0.04 0.04 74 1030.4
20260902045525 52 185 0.9 0.9 0.00 0.04 0.04 75 1030.7
20260902045021 53 206 0.0 0.0 0.00 0.04 0.04 75 1030.4
20260902044516 53 189 0.9 0.9 0.00 0.04 0.04 75 1030.5
20260902044012 52 201 0.9 0.9 0.00 0.04 0.04 75 1030.8
20260902043507 53 205 0.0 0.0 0.00 0.04 0.04 75 1030.5
20260902043006 53 201 0.0 0.0 0.00 0.04 0.04 75 1030.5
20260902042501 53 212 0.0 0.0 0.00 0.04 0.04 75 1030.8
20260902041956 53 184 0.9 0.9 0.00 0.04 0.04 74 1030.8
20260902041456 53 214 0.0 0.0 0.00 0.04 0.04 74 1030.8
20260902040951 54 195 0.9 0.9 0.00 0.04 0.04 73 1030.8
20260902040450 54 212 0.0 0.0 0.00 0.04 0.04 73 1030.5
20260902035944 54 204 0.9 0.9 0.00 0.04 0.04 73 1030.7
20260902035439 54 182 0.9 0.9 0.00 0.04 0.04 73 1030.5
20260902034939 54 187 0.9 0.9 0.00 0.04 0.04 74 1030.5
20260902034433 54 187 0.9 0.9 0.00 0.04 0.04 73 1030.4
20260902033933 54 197 0.9 0.9 0.00 0.04 0.04 72 1030.7
20260902033432 55 178 0.9 0.9 0.00 0.04 0.04 72 1030.7
20260902032931 55 204 0.0 0.9 0.00 0.04 0.04 72 1030.8
20260902032426 55 223 0.9 0.9 0.00 0.04 0.04 71 1030.7
20260902031921 55 214 0.0 0.0 0.00 0.04 0.04 71 1030.8
20260902031416 55 213 0.0 0.0 0.00 0.04 0.04 71 1030.7
20260902030912 56 219 0.0 0.0 0.00 0.04 0.04 71 1030.3
20260902030407 56 195 0.0 0.0 0.00 0.04 0.04 70 1030.3
20260902025905 56 192 0.0 0.9 0.00 0.04 0.04 70 1030.4
20260902025356 57 219 0.0 0.0 0.00 0.04 0.04 68 1030.4
20260902024856 57 203 0.0 0.0 0.00 0.04 0.04 68 1030.0
20260902024351 58 206 0.0 0.0 0.00 0.04 0.04 67 1030.3
20260902023846 58 198 0.9 0.9 0.00 0.04 0.04 67 1030.4
20260902023336 58 219 0.0 0.0 0.00 0.04 0.04 66 1029.9
20260902022835 59 198 0.0 0.0 0.00 0.04 0.04 65 1029.9
20260902022331 59 214 0.0 0.0 0.00 0.04 0.04 64 1030.0
20260902021827 60 194 0.9 0.9 0.00 0.04 0.04 65 1029.8
20260902021327 61 222 0.0 0.0 0.00 0.04 0.04 63 1029.8
20260902020823 61 222 0.0 0.9 0.00 0.04 0.04 61 1029.5
20260902020319 61 220 0.0 0.0 0.00 0.04 0.04 61 1029.8
20260902015814 61 212 0.0 0.9 0.00 0.04 0.04 62 1029.7
20260902015310 61 219 0.0 0.0 0.00 0.04 0.04 62 1029.8
20260902014805 62 206 0.0 0.0 0.00 0.04 0.04 61 1029.7
20260902014302 61 195 0.9 0.9 0.00 0.04 0.04 61 1029.7
20260902013800 61 193 0.9 0.9 0.00 0.04 0.04 62 1029.5
20260902013256 61 212 0.0 0.0 0.00 0.04 0.04 62 1029.7
20260902012751 62 219 0.0 0.0 0.00 0.04 0.04 62 1029.4
20260902012247 62 212 0.0 0.0 0.00 0.04 0.04 62 1029.5
20260902011743 63 214 0.0 0.0 0.00 0.04 0.04 60 1029.7
20260902011242 64 224 0.0 0.0 0.00 0.04 0.04 60 1029.8
20260902010741 65 222 0.0 0.0 0.00 0.04 0.04 59 1029.5
20260902010237 66 217 0.0 0.0 0.00 0.04 0.04 57 1029.5
20260902005736 67 219 0.0 0.0 0.00 0.04 0.04 56 1029.4
20260902005232 68 219 0.0 0.0 0.00 0.04 0.04 55 1029.5
20260902004731 69 221 0.0 0.0 0.00 0.04 0.04 51 1029.7
20260902004226 70 220 0.0 0.0 0.00 0.04 0.04 47 1029.3
20260902003721 69 207 0.0 0.9 0.00 0.04 0.04 48 1029.3
20260902003217 69 203 0.0 0.0 0.00 0.04 0.04 49 1029.3
20260902002713 69 214 0.0 0.0 0.00 0.04 0.04 48 1029.4
20260902002212 69 214 0.0 0.0 0.00 0.04 0.04 47 1029.3
20260902001708 70 209 0.0 0.9 0.00 0.04 0.04 47 1029.3